Regional Weather Roundup
Issued by NWS Nashville, TN

Home | Current Version | Previous Version | Text Only | Print | Product List | Glossary On
Versions: 1 2 3 4 5 6 7 8 9 10 11 12 13 14 15 16 17 18 19 20 21 22 23 24 25 26 27 28 29 30 31 32 33 34 35 36 37 38 39 40 41 42 43 44 45 46 47 48 49 50
000
ASUS44 KOHX 241115
RWROHX
MIDDLE TENNESSEE HOURLY WEATHER ROUNDUP
NATIONAL WEATHER SERVICE NASHVILLE TN
600 AM CDT FRI OCT 24 2014

NOTE: "FAIR" INDICATES FEW OR NO CLOUDS BELOW 12,000 FEET WITH
NO SIGNIFICANT WEATHER AND/OR OBSTRUCTIONS TO VISIBILITY.

* THESE REPORTS ARE NOT UNDER NWS QUALITY CONTROL AND MAY NOT
  REPORT WEATHER SUCH AS PRECIPITATION AND FOG.


TNZ005>011-023>034-057-059-062>066-078-080-241200
...NORTHERN MIDDLE TENNESSEE...

CITY           SKY/WX    TMP DP  RH WIND       PRES   REMARKS
CLARKSVILLE    FOG       41  41 100 CALM      30.13R VSB 1/2
CROSSVILLE     CLOUDY    45  42  89 CALM      30.11S
NASHVILLE      PTCLDY    47  44  90 CALM      30.12S
SMYRNA         FOG       43  43 100 CALM      30.13S VSB 1/2
SPARTA         CLEAR     45  43  93 CALM      30.10S
$$
TNZ056-058-060-061-075>077-079-093>097-241200
...SOUTHERN MIDDLE TENNESSEE...

CITY           SKY/WX    TMP DP  RH WIND       PRES   REMARKS
COLUMBIA         N/A    N/A N/A N/A CALM      30.11R
FAYETTEVILLE   CLEAR     45  43  93 NE7       30.09F
MCMINNVILLE    CLEAR     45  45 100 CALM      30.11R
SHELBYVILLE    CLEAR     43  43 100 CALM      30.12S
TULLAHOMA      CLEAR     43  39  87 CALM      30.11R
WINCHESTER     CLEAR     46  45  93 NW5       30.10S
$$


...KEY TO REMARKS...
VSB - VISIBILITY IN MILES
WCI - WIND CHILL INDEX
HX  - HEAT INDEX




USA.gov is the U.S. government's official web portal to all federal, state and local government web resources and services.